Weather History for Norfolk, NE

Change the Weather History Date:

Tuesday, March 20, 2012

  Actual Average Record
Temperature  
Mean Temperature 52 °F 39 °F  
Max Temperature 57 °F 51 °F 81 °F (1934)
Min Temperature 46 °F 28 °F -10 °F (1914)
Degree Days  
Heating Degree Days 13 26  
Month to date heating degree days 314 596  
Since 1 July heating degree days 4924 5689  
Cooling Degree Days 0 0  
Month to date cooling degree days 17 0  
Year to date cooling degree days 17 0  
Growing Degree Days 2 (Base 50)    
Moisture  
Dew Point 45 °F    
Average Humidity 72    
Maximum Humidity 93    
Minimum Humidity 51    
Precipitation  
Precipitation T in 0.07 in 1.20 in (1912)
Month to date precipitation 0.34 1.00  
Year to date precipitation 2.25 2.35  
Snow  
Snow 0.00 in 0.10 in - ()
Month to date snowfall T 3.4  
Since 1 July snowfall 15.3 26.2  
Snow Depth 0.00 in    
Sea Level Pressure  
Sea Level Pressure 29.78 in    
Wind  
Wind Speed 8 mph (WSW)    
Max Wind Speed 17 mph    
Max Gust Speed 21 mph    
Visibility 10 miles    
Events Rain    
T = Trace of Precipitation, MM = Missing Value Source: NWS Daily Summary

Daily Weather History Graph

Daily Weather History Graph

Search for Another Location

Airport:

Trip Planner

Search our weather history database for the weather conditions in past years. The results will help you decide how hot, cold, wet, or windy it might be!

Date:

Astronomy

Mar. 20, 2012 Rise Set
Actual Time 7:32 AM CDT 7:42 PM CDT
Civil Twilight 7:04 AM CDT 8:10 PM CDT
Nautical Twilight 6:31 AM CDT 8:43 PM CDT
Astronomical Twilight 5:58 AM CDT 9:16 PM CDT
Moon 6:16 AM CDT (3/20) 6:11 PM CDT (3/20)
Length of Visible Light 13h 06m
Length of Day
12h 10m
Waning Crescent, 4% of the Moon is Illuminated
Mar 20
Waning Crescent
Mar 22
New
Mar 30
First Quarter
Apr 6
Full
Apr 13
Last Quarter

Hourly Weather History & Observations

Time (CDT) Temp. Windchill Dew Point Humidity Pressure Visibility Wind Dir Wind Speed Gust Speed Precip Events Conditions
12:11 AM 53.6 °F - 48.2 °F 82% 29.65 in 10.0 mi SSE 6.9 mph - N/A   Mostly Cloudy
12:29 AM 53.6 °F - 48.2 °F 82% 29.66 in 10.0 mi South 9.2 mph - N/A   Scattered Clouds
12:56 AM 52.0 °F - 48.9 °F 89% 29.66 in 10.0 mi SSE 8.1 mph - N/A   Clear
1:31 AM 51.8 °F - 48.2 °F 88% 29.65 in 10.0 mi SSE 6.9 mph - N/A   Mostly Cloudy
1:56 AM 53.1 °F - 48.9 °F 86% 29.66 in 10.0 mi SSE 9.2 mph - N/A   Overcast
2:56 AM 52.0 °F - 48.9 °F 89% 29.69 in 10.0 mi South 11.5 mph - N/A   Overcast
3:14 AM 51.8 °F - 48.2 °F 88% 29.70 in 10.0 mi South 9.2 mph - N/A   Overcast
3:56 AM 52.0 °F - 48.9 °F 89% 29.69 in 10.0 mi SSW 8.1 mph - N/A   Overcast
4:25 AM 51.8 °F - 48.2 °F 88% 29.69 in 9.0 mi SSW 5.8 mph - N/A   Scattered Clouds
4:56 AM 50.0 °F - 46.9 °F 89% 29.71 in 10.0 mi SSE 3.5 mph - N/A   Clear
5:29 AM 51.8 °F - 48.2 °F 88% 29.73 in 9.0 mi Calm Calm - N/A   Mostly Cloudy
5:56 AM 50.0 °F - 48.0 °F 93% 29.73 in 8.0 mi WSW 3.5 mph - N/A   Overcast
6:25 AM 50.0 °F - 46.4 °F 87% 29.74 in 8.0 mi South 6.9 mph - N/A   Mostly Cloudy
6:56 AM 48.9 °F - 46.9 °F 93% 29.76 in 8.0 mi South 5.8 mph - N/A   Partly Cloudy
7:56 AM 48.0 °F - 44.1 °F 86% 29.81 in 10.0 mi West 6.9 mph - N/A   Clear
8:56 AM 46.0 °F 43.1 °F 37.9 °F 73% 29.85 in 10.0 mi NW 5.8 mph - N/A   Clear
11:56 AM 50.0 °F - 39.0 °F 66% 29.89 in 10.0 mi NNW 12.7 mph - N/A   Overcast
12:56 PM 52.0 °F - 37.9 °F 59% 29.88 in 10.0 mi NNW 16.1 mph - N/A   Overcast
1:56 PM 53.1 °F - 39.0 °F 59% 29.88 in 8.0 mi North 10.4 mph - 0.00 in Rain Light Rain
2:56 PM 54.0 °F - 39.9 °F 59% 29.86 in 10.0 mi North 12.7 mph - 0.00 in   Overcast
3:56 PM 55.9 °F - 39.0 °F 53% 29.86 in 10.0 mi North 10.4 mph - N/A   Mostly Cloudy
4:56 PM 57.0 °F - 39.9 °F 53% 29.85 in 10.0 mi NNE 12.7 mph - N/A   Overcast
5:56 PM 57.0 °F - 41.0 °F 55% 29.86 in 10.0 mi NNE 9.2 mph - N/A   Overcast
6:56 PM 55.9 °F - 42.1 °F 60% 29.85 in 10.0 mi North 10.4 mph - N/A   Overcast
7:56 PM 55.0 °F - 43.0 °F 64% 29.87 in 10.0 mi NNE 5.8 mph - N/A   Overcast
8:56 PM 54.0 °F - 44.1 °F 69% 29.89 in 10.0 mi NNE 3.5 mph - N/A   Overcast
9:56 PM 53.1 °F - 45.0 °F 74% 29.90 in 10.0 mi North 3.5 mph - N/A   Overcast
10:56 PM 51.1 °F - 45.0 °F 80% 29.90 in 10.0 mi NW 4.6 mph - N/A   Overcast
11:56 PM 52.0 °F - 45.0 °F 77% 29.89 in 10.0 mi Calm Calm - N/A   Overcast